Location: Plzen
(49.7500°N, 13.3670°E)
Time: 07:09:19
(UTC+02:00)

ISS - Visible Passes

Search period start: 18 May 2021 00:00
Search period end: 28 May 2021 00:00
Orbit: 417 x 422 km, 51.6° (Epoch: 18 May)

Date Brightness Start Highest point End Pass type
(mag) Time Alt. Az. Time Alt. Az. Time Alt. Az.
18 May -3.7 01:19:31 10° WNW 01:22:53 80° N 01:22:53 80° N visible
18 May -3.5 22:55:03 10° W 22:58:24 70° N 23:01:47 10° ENE visible
19 May -3.5 00:32:03 10° WNW 00:35:25 68° N 00:36:28 40° E visible
19 May -1.3 02:08:56 10° WNW 02:09:22 13° W 02:09:22 13° W visible
19 May -3.7 22:07:33 10° WSW 22:10:55 83° NNW 22:14:18 10° ENE visible
19 May -3.3 23:44:33 10° WNW 23:47:54 62° N 23:50:16 18° E visible
20 May -2.3 01:21:26 10° WNW 01:23:12 28° W 01:23:12 28° W visible
20 May -3.2 22:57:02 10° W 23:00:23 60° N 23:03:43 10° E visible
21 May -3.8 00:33:57 10° WNW 00:37:06 75° W 00:37:06 75° W visible
21 May -3.3 22:09:31 10° W 22:12:51 62° N 22:16:13 10° ENE visible
21 May -3.7 23:46:28 10° WNW 23:49:51 80° NNE 23:51:03 37° E visible
22 May -1.3 01:23:27 10° W 01:23:59 13° W 01:23:59 13° W visible
22 May -3.5 22:58:59 10° WNW 23:02:20 68° N 23:05:02 15° E visible
23 May -2.5 00:35:52 10° WNW 00:37:58 31° WSW 00:37:58 31° WSW visible
23 May -3.3 22:11:28 10° WNW 22:14:49 62° N 22:18:10 10° E visible
23 May -3.8 23:48:20 10° WNW 23:51:41 62° SSW 23:51:59 58° S visible
24 May -3.9 23:00:50 10° WNW 23:04:13 82° SSW 23:06:01 26° ESE visible
25 May -1.5 00:38:03 10° W 00:38:57 15° WSW 00:38:57 15° WSW visible
25 May -3.7 22:13:21 10° WNW 22:16:44 80° NNE 22:20:04 10° ESE visible
25 May -2.6 23:50:20 10° W 23:53:00 30° SW 23:53:00 30° SW visible
26 May -3.3 23:02:44 10° WNW 23:05:58 44° SSW 23:07:05 31° SSE visible
27 May -3.6 22:15:12 10° WNW 22:18:32 61° SSW 22:21:12 15° SE visible
27 May -1.5 23:52:55 10° WSW 23:54:09 14° SW 23:54:09 14° SW visible
